Location: Praha
(50.0830°N, 14.4670°E)
Time: 15:51:02
(UTC+02:00)

ISS - Pass Details

Date: 19 September 2020
Orbit: 419 x 420 km, 51.6° (Epoch: 24 September)

Event Time Altitude Azimuth Distance (km) Brightness Sun altitude
Rises 20:50:35 0° 235° (SW) 2,358 0.5 -17.1°
Reaches altitude 10° 20:52:42 10° 230° (SW) 1,497 -0.6 -17.4°
Enters shadow 20:55:56 51° 157° (SSE) 538 -3.6 -17.9°
